Wind_Gust
8 7 9 11 12 11 12 12 13 11 12 12 11 11 10 10 11 11 13 16 14 16 17 17 17 18 19 20 21 20 18 19 18 17 16 17 18 17 16 14 13 13 16 19 18 18 19 21 21 22 21 20 19 20 19 19 18 18 18 17 15 12 15 17 21 21 21 9 16 19 15 13 21 15 18 15 12 18 17 28 30 26 24 22 23
9 6 10 9 9 11 12 12 12 14 13 13 12 12 11 11 11 12 13 14 16 18 18 17 18 18 18 20 20 21 20 20 18 17 17 18 18 17 17 16 15 20 19 20 19 19 19 21 22 22 20 20 22 22 21 20 19 19 19 18 16 17 17 14 13 16 21 13 10 12 17 16 20 13 12 15 15 12 13 15 19 25 22 20 22
13 8 10 9 9 10 11 11 11 11 11 10 12 13 12 12 14 13 12 13 16 18 18 19 19 18 19 19 19 18 19 18 19 19 19 19 19 18 19 18 20 21 22 21 20 19 22 22 21 20 19 20 21 19 19 19 18 20 19 18 17 18 19 18 15 14 12 14 11 15 12 15 14 18 14 14 13 13 13 13 15 18 25 21 21
11 12 6 8 9 9 10 10 11 11 10 10 11 10 11 11 12 12 12 13 16 16 16 17 18 18 19 20 19 19 20 20 19 19 18 17 17 17 18 19 20 22 22 21 21 21 21 22 20 20 18 19 18 18 18 18 18 19 18 19 18 19 18 17 17 16 12 14 11 14 13 12 14 11 12 12 12 12 12 12 12 13 16 18 21
9 10 10 9 7 7 6 8 10 11 10 9 11 10 10 10 12 13 13 13 13 14 15 15 17 19 21 22 22 21 20 20 20 20 19 16 16 16 16 17 20 21 21 21 19 21 21 21 20 20 20 19 19 19 18 19 19 18 18 17 18 18 17 16 16 15 15 16 16 14 12 13 14 15 20 23 19 17 18 19 18 14 15 14 12
7 6 9 8 7 8 9 8 8 8 10 9 9 10 10 12 11 12 13 14 14 14 15 15 17 18 20 20 20 20 20 19 19 19 19 18 18 16 15 16 18 21 21 21 20 20 20 20 20 20 21 21 19 19 18 18 18 18 18 18 18 18 16 16 15 15 14 17 16 18 15 18 20 20 21 24 22 22 22 21 17 16 19 21 19
7 7 7 7 4 9 7 7 6 7 8 7 9 10 11 11 13 13 13 14 14 15 15 16 15 16 17 18 20 20 19 19 20 20 20 19 18 18 16 15 16 18 20 20 20 20 20 19 20 20 20 19 19 20 19 18 18 16 16 16 16 16 16 16 17 17 16 17 17 17 18 18 20 22 22 21 19 17 21 24 24 20 18 17 21
5 5 7 5 7 6 5 4 4 6 7 7 8 8 10 12 13 14 15 17 17 17 18 17 14 15 16 17 17 18 19 20 20 20 19 18 18 16 16 15 16 18 17 18 19 20 19 19 19 18 19 19 18 16 17 17 18 16 17 16 16 17 17 17 19 18 17 17 18 20 18 19 20 21 20 22 27 25 22 20 20 21 21 19 15
5 6 6 6 6 6 5 5 6 8 9 9 9 9 11 12 14 15 15 16 17 17 17 17 18 18 18 17 17 18 19 17 17 20 19 19 16 15 15 16 16 16 17 19 19 17 16 17 17 18 24 24 24 21 19 18 15 16 17 15 17 17 17 17 17 18 17 17 18 18 18 20 21 24 24 23 23 22 22 18 18 16 19 19 19
7 6 6 5 4 6 8 7 8 9 10 9 8 9 10 12 14 15 15 15 16 16 17 19 19 19 19 18 17 17 18 16 21 22 15 15 15 14 15 15 14 15 16 17 18 19 18 15 19 26 25 25 23 22 19 19 19 17 16 16 18 18 17 17 18 19 18 18 19 20 20 19 21 23 20 20 21 22 22 22 22 20 19 18 13
6 7 6 5 5 6 8 7 8 9 8 9 9 10 11 12 13 13 13 13 14 14 15 16 16 19 20 18 17 18 16 20 22 19 20 18 14 13 12 12 13 14 15 17 17 18 18 16 15 20 23 23 24 21 19 19 18 18 18 19 16 20 21 19 18 17 19 18 19 20 19 20 22 24 20 22 23 23 21 20 18 17 18 21 25
7 7 6 6 7 8 9 9 9 8 9 9 9 10 11 12 12 12 13 13 14 15 15 14 14 15 16 17 18 18 17 19 22 24 23 23 18 14 12 13 13 13 14 16 17 17 16 18 17 17 20 27 23 21 21 20 19 18 18 19 19 19 15 19 19 20 19 18 19 18 20 20 24 22 21 23 24 23 19 16 16 16 18 18 18
8 7 7 7 8 8 9 10 10 10 9 10 9 11 11 11 11 12 12 12 13 15 14 14 14 14 15 17 17 17 17 20 23 26 25 24 23 17 13 15 13 13 15 16 17 17 16 17 17 19 20 27 25 20 20 22 17 15 16 17 18 23 19 22 15 16 16 16 19 19 20 22 21 20 21 22 18 18 19 18 16 16 16 18 17
9 7 7 8 8 9 10 10 10 9 9 10 9 10 11 10 10 10 11 12 14 13 13 13 13 13 13 14 14 15 17 18 24 26 26 26 25 17 13 14 14 13 15 16 17 16 16 16 17 17 17 17 19 21 20 20 19 17 17 17 17 20 16 21 21 20 16 14 13 16 17 15 19 19 20 18 18 20 20 19 18 19 19 20 19
8 9 9 8 8 9 10 10 10 9 9 8 8 10 10 10 11 12 12 12 13 13 12 12 12 12 11 11 13 14 17 20 23 26 27 26 25 15 15 14 15 14 13 16 17 16 16 17 15 14 15 15 19 22 21 21 17 16 17 17 17 17 16 19 22 20 18 15 14 14 16 14 15 17 19 17 16 18 16 18 20 20 23 22 19
9 8 9 8 9 9 10 9 8 8 9 9 9 9 7 11 12 11 13 11 11 12 11 11 11 11 11 11 12 12 15 18 22 24 26 26 22 16 16 14 14 14 13 15 16 17 16 16 15 14 15 15 17 20 19 21 15 16 16 17 17 17 16 14 15 15 16 16 15 16 17 17 16 20 20 20 18 20 19 16 16 21 21 18 20
9 9 9 8 9 10 11 11 9 8 9 9 9 7 7 10 10 10 13 12 11 11 11 10 10 12 11 11 12 12 13 16 20 22 24 26 17 16 15 16 15 16 17 11 16 15 15 15 15 14 12 15 18 19 19 18 15 17 18 18 18 15 17 18 16 15 15 16 16 17 19 20 20 21 23 23 22 21 18 22 26 23 21 21 20
10 10 9 8 9 10 10 11 10 8 9 10 7 6 6 8 10 10 12 10 10 11 11 10 8 11 13 12 12 12 11 13 16 18 21 25 17 15 16 15 15 16 17 13 10 12 18 27 22 14 13 14 16 18 19 17 16 16 17 20 20 21 21 21 21 18 14 14 14 16 17 18 20 21 21 23 22 20 24 23 23 22 21 20 23
11 11 9 9 10 10 10 10 10 9 10 8 7 6 6 9 10 9 10 9 8 7 9 11 10 10 12 13 17 15 11 11 14 17 20 21 19 13 15 15 16 17 16 18 10 10 12 14 19 17 16 16 18 18 20 15 13 15 16 17 18 19 21 21 22 22 22 22 21 21 19 19 22 21 21 22 22 20 21 21 21 23 22 22 22
12 12 10 10 10 10 9 10 9 10 9 6 6 6 6 7 8 9 9 10 10 8 8 11 11 10 11 12 15 15 14 11 12 15 17 18 19 16 13 15 17 15 15 16 14 12 15 14 14 14 17 19 18 18 18 18 13 13 14 17 18 19 19 17 20 19 16 19 20 19 19 19 20 21 21 22 21 20 19 21 20 22 22 21 20
13 12 11 11 10 11 9 11 11 9 9 9 7 6 7 8 5 6 8 9 9 11 11 10 12 12 12 11 13 11 13 12 11 11 14 16 17 14 12 14 13 12 12 13 13 13 14 15 13 13 18 21 21 20 18 17 14 15 15 16 15 18 16 14 20 17 16 17 19 19 19 18 19 18 20 22 22 21 19 16 17 20 22 23 23
13 12 12 11 10 10 10 9 10 10 8 7 7 6 5 6 7 7 5 7 9 11 11 13 15 15 14 14 15 12 13 13 9 11 14 16 17 16 13 12 13 11 11 11 12 11 13 13 13 13 19 21 23 22 20 17 16 15 19 15 18 19 19 14 15 16 16 17 18 18 20 21 22 21 21 23 23 24 21 19 18 19 21 21 22
13 13 12 11 10 9 9 10 10 9 8 8 8 7 4 4 4 4 6 6 10 11 12 12 13 13 11 13 15 13 11 12 10 12 12 14 15 14 13 10 12 12 10 10 11 12 11 12 14 17 21 21 21 22 20 20 13 16 18 17 19 19 15 14 16 17 17 18 18 19 20 21 23 24 23 23 23 22 21 20 22 23 21 19 19
13 13 12 11 10 9 9 8 8 7 9 9 8 6 6 7 8 10 9 12 12 11 11 11 12 13 12 10 11 14 13 11 13 14 13 13 13 14 13 13 12 13 11 8 10 12 14 14 15 19 21 20 19 18 18 18 17 17 20 20 17 15 16 15 16 18 16 17 19 19 20 19 20 21 23 23 22 22 22 20 20 19 19 20 19
14 13 12 11 11 10 8 8 9 7 7 8 7 9 8 9 11 9 12 11 11 12 10 11 12 12 12 10 10 10 9 14 13 14 15 14 13 14 14 13 13 15 13 9 12 13 13 16 17 18 19 19 18 15 13 15 17 18 19 21 16 16 17 16 17 18 18 19 19 18 19 19 19 19 18 19 19 18 20 20 20 20 18 18 18
14 14 13 12 12 10 9 8 7 8 6 8 10 11 11 10 11 10 11 10 10 12 10 10 10 11 11 9 9 9 11 12 13 13 13 14 11 13 15 13 14 16 13 10 13 16 15 17 19 16 14 13 14 11 10 15 16 16 18 18 13 17 18 17 17 19 19 19 18 19 20 20 21 21 18 17 18 21 23 25 24 23 23 25 25
14 13 13 13 10 10 12 10 10 8 6 6 9 11 12 12 11 10 10 11 9 9 9 10 10 10 10 9 8 8 7 11 12 13 13 13 14 15 14 14 13 12 12 14 15 17 20 18 16 17 14 17 15 12 10 11 13 13 13 14 13 16 15 15 16 17 17 17 16 17 17 18 18 19 21 22 21 21 21 23 22 22 23 22 22
17 15 14 13 12 12 12 10 12 10 7 11 13 13 11 12 13 13 13 12 12 10 10 9 11 11 11 10 9 9 8 10 12 12 11 12 13 13 13 12 12 12 13 14 17 18 18 14 14 12 12 12 13 11 11 11 11 10 12 13 12 14 14 13 12 12 13 15 14 15 16 17 19 20 21 21 20 21 22 23 23 23 22 22 24
15 13 13 13 13 11 13 12 12 11 11 11 11 9 10 12 12 9 6 7 12 15 11 10 9 9 12 12 10 8 8 9 9 5 8 7 11 12 12 10 11 12 11 13 19 18 15 12 11 13 11 11 11 12 11 11 11 11 11 12 12 13 14 15 17 17 17 16 18 18 17 18 19 19 19 20 20 23 22 22 21 21 21 19 21
13 15 14 14 13 13 12 13 11 12 13 14 13 10 10 11 8 13 8 7 9 7 9 10 13 12 10 8 8 8 8 6 7 7 7 9 10 11 12 13 11 12 14 17 12 13 14 8 11 11 12 10 12 11 12 11 12 12 11 10 13 13 14 13 15 16 15 16 17 17 17 19 20 20 20 20 21 21 21 19 23 21 21 22 23
15 14 14 14 16 15 13 13 12 13 15 16 13 14 10 14 15 13 13 9 9 10 11 12 13 9 13 8 7 8 8 8 9 7 9 9 11 11 12 12 12 11 9 15 13 10 11 10 10 10 10 10 10 11 11 11 11 11 12 11 12 13 12 13 15 15 15 16 16 15 16 18 20 20 21 21 22 23 21 20 20 20 20 21 23
19 17 16 14 16 14 13 13 14 14 14 16 17 14 14 13 9 9 9 9 8 8 8 9 9 9 8 10 10 7 7 5 8 8 9 10 10 11 11 12 13 12 10 6 7 10 7 10 9 10 9 10 9 9 10 11 11 12 12 12 13 13 14 15 16 17 16 16 16 15 17 18 19 19 19 20 19 20 21 22 21 22 22 19 19
19 16 15 15 15 15 14 14 15 16 16 17 16 17 17 15 15 11 6 5 5 5 5 6 6 8 9 9 8 7 8 7 8 10 10 10 10 10 12 13 12 10 8 9 8 7 10 8 10 8 10 10 9 10 10 10 11 12 11 12 12 13 12 14 14 15 14 15 16 16 18 18 18 17 17 19 20 23 21 20 20 20 20 22 21
20 18 17 17 17 15 16 15 16 17 16 17 18 18 17 17 16 16 15 11 7 6 7 9 8 6 6 7 8 9 10 10 11 11 10 10 10 11 13 16 14 11 7 7 8 9 9 9 9 9 8 9 9 10 10 11 10 10 10 11 11 12 12 13 15 15 13 15 16 16 17 18 17 20 20 20 20 20 20 19 20 22 21 23 25
19 17 19 17 17 18 16 16 16 16 16 17 17 18 17 17 17 17 17 18 16 16 14 13 11 11 11 8 10 12 11 12 11 11 11 11 10 13 15 13 9 8 6 7 7 8 9 8 10 7 9 9 9 9 10 10 10 11 11 12 11 11 12 14 14 14 15 15 16 17 16 18 18 17 18 19 20 20 19 20 20 21 23 23 25
20 18 18 21 20 17 17 17 15 17 18 18 18 18 16 17 18 16 15 15 16 16 13 13 14 12 14 10 10 12 12 13 12 11 11 11 10 9 10 9 9 9 8 8 10 10 7 9 9 9 9 9 9 10 9 10 10 11 10 11 11 11 12 13 13 14 14 15 15 17 17 17 18 18 19 18 18 19 19 20 21 20 21 23 23
21 19 19 20 20 19 17 16 15 16 13 16 17 16 16 18 17 16 16 16 16 14 15 14 12 9 8 12 13 11 13 11 12 10 9 9 10 6 7 10 10 9 10 8 8 9 10 8 9 9 9 9 9 9 10 9 9 10 9 9 10 11 11 11 13 11 14 14 16 17 17 18 19 19 20 19 19 18 18 19 20 20 19 23 20
23 23 22 21 19 18 17 18 19 14 17 16 16 17 17 17 18 18 17 16 16 15 15 15 11 17 18 19 15 12 12 12 9 7 8 7 8 9 10 7 7 10 10 8 9 10 9 7 9 10 8 9 9 9 9 9 9 9 10 9 9 9 12 12 12 12 13 14 15 16 16 17 18 18 18 17 18 19 20 20 21 24 21 20 19
21 20 21 20 17 21 19 18 17 18 16 16 17 17 18 17 17 17 17 16 15 15 15 16 17 17 19 14 13 12 10 7 9 12 11 10 10 8 9 9 10 9 9 10 10 9 10 10 8 9 9 9 9 8 8 8 8 9 9 9 9 9 11 10 11 11 10 11 13 14 15 15 15 16 16 16 17 19 21 22 23 23 24 23 22
24 21 20 22 19 21 19 18 19 18 18 18 18 17 16 18 20 20 18 17 17 16 16 17 17 19 17 13 14 14 15 14 13 13 11 10 10 10 9 11 11 12 11 10 10 10 10 10 10 10 9 9 9 7 7 8 7 8 8 8 8 8 10 9 9 9 11 11 12 13 14 15 17 17 17 16 17 21 22 22 22 21 22 23 21
23 22 15 18 20 20 16 18 19 22 19 19 18 18 20 20 18 17 18 18 17 17 17 17 19 18 17 22 19 21 20 18 15 13 13 13 12 11 11 12 12 11 10 11 11 10 11 11 10 10 9 9 8 9 8 7 7 7 7 7 7 7 8 9 9 8 10 11 12 13 15 16 17 18 18 18 17 19 19 19 20 23 20 18 20
22 20 20 20 21 20 19 20 22 23 19 18 18 20 19 18 18 18 19 18 17 17 16 16 16 15 16 22 22 23 18 13 12 12 12 12 13 13 13 12 12 13 13 12 12 12 10 11 10 10 11 9 9 8 8 6 6 8 6 7 8 7 7 8 8 9 10 11 12 13 15 17 18 17 19 16 18 19 19 20 22 19 19 20 19
22 22 23 20 21 22 23 24 21 19 19 20 22 16 18 18 18 19 19 19 18 17 16 15 14 12 14 17 23 22 17 12 9 14 13 13 13 13 13 13 12 13 13 12 12 12 12 12 11 10 10 10 10 9 9 8 6 7 7 9 8 8 8 8 8 9 10 12 14 15 16 16 18 17 17 17 19 18 19 23 21 20 20 20 19
22 21 19 20 22 22 21 19 19 20 22 22 21 19 17 17 17 17 19 18 18 17 17 16 17 16 14 16 17 18 15 13 12 13 13 12 13 13 12 11 11 10 9 10 11 11 12 11 10 8 8 9 8 6 7 8 7 8 9 9 9 10 10 8 9 10 12 14 17 17 17 18 19 19 19 19 17 19 19 18 19 19 20 19 20
22 22 21 21 21 21 22 20 21 21 20 16 17 18 17 19 19 19 18 19 18 17 16 17 17 18 17 17 19 20 17 15 14 12 12 13 13 12 12 12 12 12 11 11 11 11 12 12 12 10 9 7 7 8 6 4 5 9 10 11 11 11 9 8 8 10 13 14 17 18 18 18 19 18 18 19 18 18 19 18 18 16 20 19 19
23 22 22 22 22 22 22 22 20 20 20 21 21 20 18 19 19 18 19 18 18 18 17 18 18 19 19 20 19 19 18 15 14 14 13 12 12 12 12 13 12 12 13 13 12 11 12 13 13 12 12 10 8 7 8 10 12 14 14 15 12 10 8 7 8 11 13 14 16 17 19 18 18 18 19 21 19 18 19 20 17 17 18 19 19
26 23 24 23 24 24 24 23 21 21 21 21 20 20 19 20 19 17 16 20 19 16 17 18 18 18 18 19 20 20 18 16 15 15 16 15 14 13 13 12 13 11 11 12 12 12 12 12 12 13 12 11 9 10 11 12 14 15 16 14 10 9 6 8 9 12 13 15 16 17 17 18 19 18 21 21 19 20 18 18 18 19 18 18 20
26 25 24 23 22 22 22 21 22 17 20 20 21 20 19 18 17 18 18 18 18 17 17 18 19 19 19 19 18 18 18 17 16 15 14 14 14 14 14 14 14 14 12 12 12 12 12 12 12 12 12 12 10 11 11 14 15 16 16 14 10 8 9 9 11 12 13 16 17 17 17 18 17 18 19 20 20 20 18 18 18 16 17 19 20
25 25 25 23 23 24 23 24 22 24 25 24 22 23 20 21 21 21 20 20 21 19 20 20 19 18 19 19 19 18 17 16 16 15 15 14 14 15 15 15 14 14 14 14 13 13 12 12 12 13 13 12 11 12 14 13 14 15 13 11 10 10 10 13 11 13 16 18 16 17 17 17 18 19 20 20 20 17 16 15 15 17 17 17 18
25 25 25 25 25 24 23 23 24 24 23 22 22 22 21 20 20 20 20 20 20 19 19 20 20 21 21 20 19 19 18 19 18 17 17 15 15 15 15 15 15 15 15 15 14 14 13 13 13 13 12 11 10 12 13 14 14 13 11 11 11 11 11 12 11 14 18 17 19 18 19 19 19 19 18 16 16 16 15 15 15 17 17 18 18
25 26 26 26 27 25 23 23 23 23 23 22 22 22 22 23 23 23 22 23 24 23 22 22 21 21 21 22 21 21 21 20 19 18 18 17 17 16 16 16 16 15 13 13 13 14 13 13 13 13 12 11 11 13 14 14 13 13 12 14 13 11 10 11 16 14 18 17 19 19 17 18 18 17 17 16 16 15 17 17 16 16 17 17 16
Wind_Speed
1 0 1 1 2 3 4 4 5 4 4 3 3 4 4 5 6 5 7 7 7 8 9 8 8 7 8 8 8 8 9 9 8 7 7 8 7 7 8 7 7 8 9 11 11 11 11 11 10 10 9 9 8 8 9 9 9 8 9 9 8 7 5 3 4 6 5 1 3 3 5 4 4 3 6 7 7 5 6 6 7 6 6 6 6
2 1 1 0 1 2 3 3 4 3 4 3 3 3 4 5 5 6 7 6 8 8 8 6 7 7 8 8 8 8 8 8 8 7 8 9 8 6 8 8 10 12 11 11 11 9 10 11 11 10 9 8 9 10 9 9 9 9 10 9 8 8 9 6 3 4 5 3 3 4 3 3 4 4 4 7 8 8 7 7 6 6 7 6 5
4 3 2 1 0 1 2 3 4 4 4 3 3 3 3 4 5 7 7 7 7 7 7 7 7 7 8 8 8 8 8 7 7 7 8 7 8 8 7 8 12 11 12 11 10 10 12 11 11 10 9 10 10 10 10 9 8 9 9 8 8 8 8 8 7 6 7 4 3 5 5 4 3 5 6 6 7 7 8 6 6 6 6 5 5
3 3 2 1 1 1 3 3 4 4 4 3 4 3 3 3 5 7 7 7 7 6 7 8 8 8 8 8 8 8 8 8 7 7 7 7 8 8 7 9 11 11 11 10 10 10 10 11 11 11 10 10 10 10 9 8 8 8 8 7 7 8 8 8 7 6 6 6 6 6 6 6 4 4 7 7 7 6 7 7 6 7 8 7 5
4 4 3 1 0 0 1 2 3 3 4 4 5 5 4 4 5 8 7 7 6 6 7 7 8 9 9 8 8 8 8 7 7 8 7 6 6 7 8 10 12 11 10 10 11 10 10 9 9 10 10 9 10 9 8 10 8 8 8 7 7 6 6 7 7 6 6 7 6 6 6 5 6 8 11 11 10 9 11 11 10 8 9 8 7
3 4 4 2 1 0 1 2 2 2 3 4 4 5 6 6 6 7 7 7 7 7 7 7 7 8 8 7 7 7 7 7 7 6 6 7 7 8 8 9 10 10 9 9 9 9 9 9 9 9 10 10 8 7 8 8 7 8 9 8 8 7 7 8 8 8 7 6 7 8 8 9 10 9 10 10 10 10 11 11 10 9 10 11 10
2 5 4 3 2 1 1 0 0 2 3 4 4 5 6 6 8 8 6 6 7 7 6 7 6 6 7 7 8 7 6 6 7 7 7 7 7 8 8 9 8 8 9 9 8 8 9 9 9 9 9 8 8 8 8 8 8 8 8 7 7 7 8 8 9 9 9 9 9 9 9 9 9 10 12 10 6 7 11 12 12 10 9 9 11
2 4 4 4 3 3 2 1 2 4 4 4 5 5 6 7 8 7 7 7 7 6 6 6 5 6 7 7 6 6 7 8 8 7 6 6 6 7 7 8 9 8 8 9 9 9 8 8 9 8 8 7 7 7 7 7 6 8 8 7 8 8 8 8 8 8 8 9 9 9 8 9 10 9 10 12 14 13 11 9 10 11 11 10 8
4 4 4 3 3 3 0 3 4 5 5 5 5 6 7 7 7 7 6 7 6 6 5 6 7 8 8 7 7 7 8 7 6 6 5 7 6 6 7 7 8 8 8 8 8 9 8 7 8 9 12 15 16 13 12 10 6 8 8 8 9 8 8 8 8 8 8 8 8 8 8 9 9 10 11 11 11 10 10 8 8 9 9 10 10
5 4 3 2 2 3 4 4 5 5 6 5 4 5 6 7 8 8 7 6 5 5 6 7 7 7 8 8 8 7 7 6 9 12 9 5 6 5 6 7 7 7 7 7 8 8 8 8 9 18 17 17 16 14 14 14 13 9 7 9 9 8 8 8 8 7 7 8 8 8 9 9 9 9 9 9 8 8 10 11 10 10 10 9 6
4 5 3 2 3 4 5 4 5 5 4 4 4 6 6 7 7 7 6 5 5 4 6 8 6 6 7 7 8 7 7 7 14 14 15 13 7 6 6 7 7 8 7 7 7 7 7 7 7 10 12 13 12 15 15 15 14 14 12 11 11 9 8 9 8 7 7 7 6 8 8 9 9 9 8 8 8 8 7 8 8 8 9 11 11
5 4 4 4 5 5 5 5 5 5 4 4 5 6 6 7 7 6 6 6 4 5 6 5 5 5 6 7 7 7 7 11 14 15 14 14 10 7 6 7 7 7 7 7 6 6 6 6 7 6 8 11 9 9 11 14 14 13 13 13 13 12 9 7 6 7 7 7 8 8 8 8 8 9 9 10 10 9 8 7 7 8 8 9 8
5 5 3 5 5 5 6 6 5 5 4 4 5 7 7 6 6 6 6 5 4 5 4 5 5 5 6 7 7 6 6 11 13 14 14 14 13 9 7 6 7 6 6 6 7 6 6 6 6 7 7 14 10 8 8 9 10 12 13 12 13 16 15 15 11 6 3 6 7 9 9 7 8 9 10 10 8 8 9 8 8 7 6 7 7
6 5 5 5 5 5 6 6 5 5 4 4 5 6 7 6 5 5 5 5 5 4 4 5 4 5 5 6 6 6 6 9 12 13 13 13 12 9 5 6 6 6 6 5 5 6 6 6 7 7 7 7 8 8 7 7 7 7 8 8 9 11 13 14 13 13 9 6 6 8 8 7 7 8 9 9 10 9 9 9 8 8 9 8 9
5 6 6 5 5 6 6 6 5 4 4 4 4 5 7 6 6 5 6 6 6 6 6 5 4 4 4 5 7 7 6 10 11 12 12 11 11 8 5 5 5 4 4 4 4 4 4 5 5 5 6 7 7 9 7 7 6 6 7 8 9 9 9 10 10 8 8 7 6 6 6 6 5 7 8 9 9 8 7 7 8 7 8 7 4
6 5 5 5 6 6 6 6 5 4 4 4 4 4 5 7 7 5 4 4 4 4 4 5 5 4 3 4 7 6 6 11 11 12 12 10 9 6 5 5 4 4 3 3 4 3 3 5 6 6 6 6 11 12 9 4 5 6 8 6 7 7 8 9 12 11 10 8 6 6 6 7 8 7 9 9 9 9 8 7 7 11 11 9 9
6 6 6 5 5 6 7 6 5 5 4 4 4 3 4 7 6 5 6 5 5 5 5 4 4 4 4 4 7 6 6 9 11 12 12 11 8 6 5 6 6 6 5 4 5 6 4 5 5 7 7 7 11 12 12 7 5 7 7 7 7 7 9 7 11 13 13 13 12 12 13 13 13 13 15 15 12 10 8 10 13 10 10 11 10
6 6 6 5 6 6 6 7 6 5 5 5 4 3 3 5 6 5 7 5 4 4 5 6 4 3 5 4 4 7 5 7 10 11 11 12 8 5 4 5 6 6 5 5 5 5 7 14 10 6 7 8 12 12 12 6 6 6 7 7 8 10 9 8 6 7 9 10 11 11 12 13 13 13 15 15 15 13 10 11 9 8 8 9 10
7 7 6 5 6 6 6 6 6 6 5 4 4 4 4 5 6 5 5 5 5 4 5 6 5 3 3 4 8 7 5 6 10 10 11 10 7 4 5 5 6 6 6 6 5 6 7 8 13 12 10 10 13 12 11 7 7 7 6 8 10 10 8 7 8 9 8 8 9 9 9 12 10 9 10 15 16 14 9 8 8 8 9 9 9
7 7 6 6 6 6 5 6 6 6 6 4 4 4 4 4 5 6 5 6 6 5 5 7 6 4 3 3 3 4 6 5 6 10 10 10 9 5 5 7 6 5 5 5 7 7 7 7 8 12 14 13 12 11 11 11 8 7 7 9 9 10 7 6 9 7 5 6 6 6 7 8 8 8 9 10 10 11 10 9 8 7 8 7 8
8 8 7 7 6 6 5 6 7 5 5 5 4 4 4 5 4 4 5 5 4 7 6 6 6 5 3 3 3 2 3 4 5 8 8 8 8 6 5 5 3 3 3 4 5 6 6 7 6 10 13 11 10 10 11 12 11 8 9 9 7 5 5 6 8 11 6 6 5 6 7 7 8 8 9 10 10 10 9 8 8 8 7 8 8
8 7 7 7 6 6 6 5 6 6 4 4 4 4 4 4 4 4 3 4 6 7 7 7 6 5 3 3 2 3 5 8 4 7 8 8 9 8 5 4 3 3 5 5 5 5 5 5 5 8 11 9 9 11 12 12 13 8 10 12 12 12 8 6 5 6 7 7 7 8 9 9 9 9 9 9 9 10 10 9 8 8 7 6 7
8 8 7 7 6 6 5 6 6 5 5 5 5 5 3 3 2 2 4 3 6 7 8 7 6 5 4 3 3 3 3 4 7 4 7 9 10 10 9 6 8 5 5 4 4 4 3 4 4 9 8 9 12 13 12 13 10 10 13 13 13 13 9 7 7 7 8 8 9 10 10 10 10 10 9 9 9 9 9 9 9 8 8 7 8
8 8 7 7 6 6 5 5 5 5 6 5 5 4 4 4 4 4 5 6 7 6 6 6 6 6 5 3 2 1 2 3 5 7 5 9 9 9 9 9 8 4 3 3 3 4 5 5 6 7 8 11 12 12 12 11 10 14 13 13 13 10 7 7 8 8 7 8 9 9 9 9 8 9 9 9 8 9 9 9 9 9 8 8 7
9 8 8 7 7 6 5 5 5 5 4 5 5 5 5 5 5 3 7 7 7 7 6 6 7 6 5 5 3 1 2 3 3 4 6 7 8 8 7 7 8 6 4 3 3 3 5 7 4 9 11 11 11 10 9 12 14 14 14 13 11 7 8 8 8 8 9 9 8 7 7 8 7 7 8 8 7 6 7 7 8 7 7 5 5
8 9 8 7 7 6 5 5 5 5 4 4 5 6 7 5 6 4 6 6 7 7 6 6 6 6 6 5 4 3 0 0 1 1 3 5 4 6 6 6 8 8 6 4 6 6 6 6 10 11 11 9 6 5 5 7 12 13 13 11 7 7 7 7 7 8 8 7 7 8 8 7 8 7 7 6 7 10 10 10 10 11 11 12 9
9 8 8 8 7 6 6 6 5 4 4 3 5 5 6 6 6 6 6 7 5 5 6 6 6 6 6 6 4 3 2 1 0 2 2 2 2 3 3 3 5 5 6 5 6 6 6 6 5 8 8 10 9 8 8 8 7 7 7 7 7 7 7 7 7 7 7 7 7 7 7 7 6 7 9 8 8 8 9 10 9 9 10 10 9
10 9 9 8 7 7 7 8 8 5 4 6 6 4 3 5 7 7 7 7 7 6 6 6 7 7 6 6 5 4 1 1 2 2 2 1 2 2 2 3 5 5 5 5 5 4 3 4 7 6 6 6 7 6 6 6 6 6 6 6 6 6 7 9 7 5 5 5 5 5 6 7 8 9 8 8 8 8 9 9 9 9 9 9 9
9 9 8 8 8 7 7 7 6 6 5 4 3 2 5 6 7 4 2 4 7 8 7 6 5 6 7 7 6 3 1 1 1 4 1 1 0 1 3 3 3 4 3 5 3 3 3 6 6 6 5 4 5 6 6 6 6 6 6 6 6 6 6 6 7 7 6 6 7 7 7 7 7 7 8 8 8 9 9 8 8 8 8 6 7
8 9 8 8 8 8 7 7 6 6 7 7 6 4 7 7 2 5 5 2 3 5 8 6 8 7 6 4 3 4 5 3 6 6 3 2 3 2 2 2 2 2 4 5 2 2 3 5 4 4 4 4 5 4 5 5 5 6 5 5 5 6 6 6 6 6 6 6 6 7 8 7 8 8 8 8 8 8 9 10 9 8 8 8 8
8 8 8 8 9 9 7 7 6 6 7 8 7 7 4 5 8 9 6 4 5 5 4 9 11 8 8 4 1 3 6 7 8 6 5 4 3 3 3 2 2 2 1 2 3 3 4 5 3 4 3 4 5 4 4 4 4 5 5 5 6 5 5 6 6 5 6 6 6 6 7 7 7 8 8 9 9 9 8 7 7 7 7 8 8
10 9 9 8 9 9 7 7 7 7 7 7 8 7 7 7 2 6 7 6 6 6 7 8 8 8 7 8 6 1 3 4 7 6 5 4 2 3 3 4 3 2 2 4 3 3 3 5 4 3 4 5 3 3 3 4 3 3 3 5 6 5 6 6 5 5 6 6 6 6 7 7 7 7 8 8 8 8 8 8 8 8 8 8 8
11 9 9 9 9 9 8 8 8 9 9 8 7 7 9 8 8 4 0 4 5 4 4 4 5 7 8 8 7 5 6 6 7 5 3 2 3 3 5 5 3 3 6 4 5 4 4 4 4 3 4 5 3 4 3 3 3 4 5 5 5 5 5 4 4 6 6 7 6 6 7 7 7 7 6 8 8 8 8 8 9 8 9 9 9
12 10 10 10 10 9 9 8 9 9 9 9 9 8 8 8 9 9 8 3 0 2 3 2 2 3 4 5 5 4 4 5 5 4 3 2 2 3 4 2 5 6 4 4 5 5 4 5 4 4 3 3 3 4 4 3 3 4 4 4 4 4 4 4 5 6 5 6 5 6 6 6 6 7 7 7 7 7 7 8 9 9 9 9 10
11 12 16 13 9 10 9 8 9 9 8 9 9 9 8 7 8 9 9 9 9 8 7 6 5 6 4 4 4 4 4 4 5 4 4 2 1 2 4 4 5 2 2 3 4 5 5 5 5 4 4 4 3 4 3 2 3 4 5 4 3 4 3 5 5 4 5 5 6 5 6 6 7 7 7 8 8 8 8 8 8 9 9 9 10
12 10 10 13 11 9 9 9 8 9 10 10 9 9 8 8 8 8 8 8 9 9 6 7 6 7 8 5 5 6 7 7 6 6 4 3 2 1 2 3 4 3 4 3 4 3 4 5 6 5 4 5 4 3 3 3 3 4 4 5 4 3 3 4 4 4 5 5 5 6 5 5 6 7 6 6 7 7 7 8 8 9 9 8 9
11 10 10 11 11 10 10 9 8 9 9 9 9 8 8 8 8 8 8 8 8 7 8 6 4 2 3 4 7 7 9 7 7 5 3 3 4 1 2 4 6 5 4 5 5 6 5 4 5 5 5 5 4 4 3 3 3 3 4 4 3 4 3 3 4 4 4 4 5 5 5 6 6 6 7 6 6 6 7 8 7 7 8 10 10
13 12 11 12 11 10 9 9 10 11 10 9 9 9 9 9 9 9 9 9 9 8 7 6 7 8 9 10 9 7 6 5 4 5 4 2 2 2 3 4 4 6 6 5 6 6 6 6 5 6 5 5 5 4 3 3 3 5 5 4 3 3 5 4 4 4 4 4 4 4 3 5 6 6 6 6 6 6 6 6 7 7 7 8 8
11 16 17 17 14 11 10 10 9 10 9 9 9 10 10 10 9 8 9 8 8 8 7 8 9 9 10 7 7 6 5 3 5 7 7 6 6 5 5 6 6 6 6 6 6 6 6 6 5 5 6 6 5 4 4 4 4 5 4 4 4 4 4 4 4 3 4 3 3 2 3 3 4 4 5 5 5 5 6 7 7 7 8 7 8
13 11 13 18 11 13 11 11 10 10 10 10 10 10 9 10 11 11 10 9 9 9 9 9 9 10 9 7 7 7 8 8 7 7 7 6 6 6 6 6 7 7 7 6 6 6 6 6 6 6 6 5 5 5 4 4 4 5 4 5 4 4 4 4 2 2 3 2 2 2 3 3 3 4 3 4 4 5 6 6 7 7 7 8 8
12 12 11 13 14 11 10 10 10 11 10 11 10 10 11 11 10 10 10 10 9 9 9 10 10 10 9 13 16 16 11 10 8 7 7 7 7 7 7 7 7 6 6 6 6 6 6 6 6 6 6 5 5 6 5 4 4 4 5 4 4 3 3 3 3 1 2 1 2 2 2 3 3 3 4 4 6 6 6 6 6 6 7 7 7
12 10 11 11 12 11 11 11 12 13 11 10 10 11 10 10 10 10 10 10 10 9 9 9 9 8 11 18 18 19 11 7 7 7 6 6 7 7 7 7 7 7 7 7 7 7 6 6 6 6 6 6 6 5 5 4 4 5 4 4 4 3 3 2 1 1 1 1 1 2 2 3 3 3 4 5 4 5 6 6 6 6 7 7 6
13 12 12 11 11 12 12 13 11 10 10 11 11 11 11 10 10 10 10 10 10 10 9 9 7 7 8 14 16 18 9 7 7 8 7 8 7 7 7 7 7 7 7 7 7 7 7 6 6 6 6 6 6 5 5 5 4 5 4 5 4 3 3 2 1 0 0 0 1 2 2 2 2 2 3 4 4 5 5 6 6 6 7 7 6
12 11 11 11 12 12 12 10 9 11 11 14 13 11 10 10 9 9 10 10 10 10 9 9 8 9 7 9 10 10 8 7 7 7 8 7 7 7 7 6 6 6 5 6 6 6 6 6 6 5 5 5 5 4 5 4 4 5 5 5 4 4 3 2 1 0 0 0 0 1 2 2 2 3 4 5 4 5 6 6 6 7 7 6 6
12 12 11 11 11 11 11 11 11 11 12 9 9 9 10 10 10 10 10 10 10 10 9 8 8 8 8 9 10 11 9 8 8 7 7 7 7 7 6 6 7 7 6 6 6 6 7 6 6 6 5 4 4 5 4 3 3 5 6 6 6 5 4 3 2 2 1 1 0 0 1 2 2 3 4 5 5 5 6 6 6 7 7 5 6
9 9 11 12 12 12 12 11 11 11 10 10 11 10 9 10 10 10 10 10 10 10 9 8 8 9 9 10 10 10 10 9 8 8 7 6 7 7 6 7 7 7 7 7 7 6 7 7 7 7 7 6 5 4 4 3 3 3 4 4 5 5 4 3 3 2 1 1 1 1 2 2 3 3 5 5 4 5 5 6 6 6 5 6 6
14 12 11 11 12 13 13 13 11 11 11 11 10 11 10 10 10 10 10 11 10 9 9 8 9 9 9 10 11 11 10 9 8 8 9 9 8 7 7 7 7 7 7 7 7 7 7 7 7 7 7 6 5 6 5 4 4 3 3 4 5 5 4 3 3 3 2 1 1 1 2 2 3 3 5 5 4 5 6 6 6 7 5 5 6
12 13 12 12 12 11 11 11 12 12 11 11 11 11 10 10 9 10 9 10 10 9 9 9 9 9 10 9 9 9 9 9 8 8 8 7 8 8 8 8 8 8 7 7 7 7 7 7 7 7 7 7 6 6 6 5 4 5 5 4 4 4 5 5 2 2 1 1 1 2 2 2 3 4 4 4 5 5 6 6 6 4 5 5 6
13 13 13 12 11 12 11 12 11 12 13 12 12 12 11 11 11 11 11 11 11 11 10 11 10 10 9 10 10 9 9 9 9 8 8 8 8 8 8 9 8 8 8 8 7 7 7 7 7 7 7 7 6 7 7 6 6 5 5 5 6 8 8 7 4 3 3 2 1 2 2 3 3 3 4 4 6 6 7 6 4 5 5 5 6
13 13 12 13 13 13 12 12 12 12 12 12 12 12 11 11 10 10 11 11 10 10 10 10 11 11 11 10 10 10 10 10 10 9 9 8 8 8 8 9 9 9 8 8 8 8 7 7 8 7 7 6 6 7 7 7 7 7 5 6 9 9 8 8 7 6 4 2 3 2 3 3 4 3 3 4 5 7 6 4 4 6 5 6 6
13 13 13 13 13 12 12 12 12 12 11 11 11 11 11 12 12 12 11 12 12 12 11 11 11 11 11 11 11 11 11 11 10 10 9 9 9 9 9 9 9 9 8 8 8 8 8 8 7 8 7 6 7 7 7 7 7 7 8 10 11 9 9 7 5 5 6 4 2 3 2 3 3 3 4 4 5 6 6 5 5 5 5 5 6
Wind_Direction
89 6 332 346 14 17 350 346 346 350 1 14 48 50 63 65 58 58 53 43 43 48 45 40 35 33 32 32 28 22 19 16 8 7 15 10 10 6 2 9 22 41 50 46 39 41 39 38 29 23 20 33 28 22 15 7 12 14 14 8 5 356 321 271 271 275 292 266 285 298 301 307 297 292 308 304 294 278 264 266 270 263 253 254 260
159 206 261 295 1 350 354 342 343 357 17 13 47 62 73 76 77 69 67 52 47 49 44 40 39 36 38 33 30 26 23 20 12 11 19 13 13 10 7 16 48 55 51 46 41 39 38 36 24 13 14 22 31 29 13 9 12 12 17 11 8 357 351 346 288 278 289 330 320 320 312 311 298 305 296 298 293 295 287 282 277 267 265 267 269
172 182 198 219 252 321 355 355 350 10 34 27 46 58 76 83 80 82 75 65 55 50 41 39 38 40 43 35 29 28 22 19 13 16 14 1 9 12 15 34 65 60 55 47 40 37 37 32 21 11 10 22 27 24 16 16 15 21 13 8 4 352 351 1 1 355 334 334 6 337 338 333 325 316 317 310 301 296 302 299 296 298 287 284 287
170 168 187 261 279 9 4 354 9 22 45 43 55 57 75 80 83 85 80 70 61 49 45 35 35 37 41 35 31 27 23 17 15 17 14 8 12 17 24 56 68 65 61 53 43 41 37 33 20 14 11 24 21 19 15 14 18 13 6 3 1 352 349 354 1 353 347 355 354 354 340 336 342 335 347 334 323 326 325 318 320 320 318 312 298
137 177 170 233 301 344 339 360 19 33 55 64 69 68 76 88 94 93 86 72 61 53 46 40 37 35 35 29 26 26 19 15 17 16 14 8 13 21 40 64 67 66 61 56 54 48 44 42 27 21 18 25 22 19 9 14 13 15 14 3 357 349 347 351 348 351 359 6 347 351 347 351 360 8 22 8 356 3 359 355 341 340 342 336 325
120 143 157 188 224 273 324 356 21 59 81 78 77 75 73 76 86 90 87 82 69 54 50 41 40 36 34 28 29 24 19 20 20 16 13 14 21 32 46 63 70 67 62 58 56 51 47 42 37 33 29 28 19 14 11 13 12 17 14 6 3 356 1 5 3 4 8 4 2 356 1 17 9 4 10 8 1 359 357 349 346 354 349 344 338
141 139 162 189 212 247 267 296 303 77 84 91 83 76 75 76 88 99 93 84 77 66 53 52 38 41 34 30 28 20 20 25 24 18 18 23 30 41 55 61 65 63 57 53 49 50 49 42 38 36 35 28 22 16 6 14 15 16 15 10 9 12 18 18 12 12 13 13 14 9 1 15 13 358 354 356 3 33 3 350 345 342 344 343 333
160 162 144 192 205 240 266 311 86 84 79 79 82 86 84 81 89 96 93 82 75 70 60 54 41 39 33 33 23 20 24 27 22 16 18 25 32 45 60 68 65 61 55 51 48 44 44 46 41 38 40 33 25 17 17 16 13 24 17 17 17 22 26 21 21 16 19 20 17 6 8 359 2 357 351 1 4 1 7 348 331 331 332 329 325
140 169 156 151 211 226 155 98 90 84 85 84 87 91 90 94 95 98 92 86 80 74 68 58 47 38 31 30 27 24 31 24 18 6 10 27 33 51 63 69 71 67 59 52 49 46 37 35 43 40 41 38 31 25 23 23 29 32 26 24 26 24 25 26 27 23 24 24 18 11 7 9 6 359 1 5 1 344 327 333 322 324 323 323 326
136 159 158 171 189 154 112 107 97 90 89 91 97 95 95 97 100 102 99 97 93 85 73 61 53 42 35 27 28 28 23 19 8 22 30 36 45 54 64 63 65 63 59 52 47 46 42 32 33 41 36 32 26 17 19 17 24 39 37 33 30 32 30 31 31 26 23 26 21 9 13 11 1 2 358 350 337 331 340 345 342 335 333 330 319
147 159 176 176 145 127 109 107 102 95 101 99 90 90 95 99 99 103 105 106 98 88 75 65 54 43 40 35 31 28 20 9 12 28 29 33 50 57 67 65 63 62 57 54 50 45 38 35 24 30 32 25 17 12 16 18 19 26 29 38 42 40 31 31 32 23 23 24 14 21 20 10 5 359 359 345 346 343 339 332 331 338 346 344 336
155 160 174 132 126 121 114 109 104 105 95 84 88 104 109 104 104 107 109 105 101 91 79 74 64 47 45 43 40 27 23 8 21 28 32 35 45 60 62 69 65 60 58 54 51 49 41 36 30 21 25 30 23 6 9 11 14 21 25 23 31 37 45 51 27 20 19 20 20 24 18 18 5 3 355 352 345 340 344 334 341 341 338 337 327
146 157 144 121 129 122 114 111 113 110 107 99 94 102 108 107 108 108 108 118 107 98 102 83 69 53 50 49 42 29 28 8 24 32 35 38 44 59 60 67 68 63 60 57 54 49 41 36 34 29 16 24 21 12 11 4 4 16 25 25 29 31 25 26 31 38 14 27 26 25 24 9 15 7 358 345 332 343 343 344 342 337 328 317 317
140 141 132 137 137 130 122 120 121 124 119 106 103 106 114 122 121 116 115 108 110 114 108 97 84 67 60 58 48 35 35 9 28 36 39 42 46 57 63 69 73 70 65 62 59 55 43 38 30 22 13 21 19 14 8 7 5 14 22 30 31 24 24 26 21 21 30 37 32 34 17 22 22 2 353 348 354 350 342 336 334 334 329 314 305
136 137 140 145 132 128 126 127 130 130 118 113 104 108 117 128 130 134 129 131 130 133 131 118 99 85 73 67 63 42 25 19 35 39 41 42 46 59 53 59 69 70 67 65 67 65 57 45 39 30 15 16 21 15 10 5 5 20 30 33 32 29 28 26 23 21 21 22 32 34 20 15 12 2 357 356 358 350 334 330 332 316 302 291 289
135 134 142 149 139 137 132 133 133 130 123 114 109 108 117 135 144 147 129 127 126 122 115 115 112 99 83 77 75 56 25 23 36 41 41 39 47 54 51 54 49 44 42 45 37 40 59 48 34 23 17 16 7 12 13 6 15 31 36 32 33 31 32 23 24 21 22 18 20 23 14 8 6 7 2 360 0 356 352 341 350 3 355 0 0
143 145 150 155 141 140 138 136 135 130 129 121 119 116 107 129 145 143 132 146 144 142 142 121 123 116 88 68 79 65 42 25 35 42 42 38 50 46 45 52 46 38 23 18 21 16 19 44 42 19 12 13 5 7 8 16 32 36 34 33 33 33 28 14 21 15 16 14 16 20 16 13 10 11 11 6 12 3 356 13 16 352 358 356 350
154 146 152 158 144 143 143 138 135 135 129 133 133 116 101 115 145 154 148 158 159 160 126 110 107 101 96 81 74 82 57 32 41 42 43 42 46 53 44 60 52 36 18 16 13 13 13 23 31 27 13 5 5 10 12 21 40 36 37 35 36 34 21 8 15 11 14 18 20 23 18 16 15 14 15 9 12 17 16 21 355 351 360 360 346
156 149 153 149 146 145 143 134 133 135 137 149 141 123 117 125 143 149 153 156 163 143 120 115 109 98 103 97 87 84 73 43 39 42 47 44 45 41 43 57 53 30 17 10 6 16 5 6 12 15 12 3 7 15 23 33 48 41 37 41 38 34 16 356 14 8 6 12 14 15 16 15 13 14 13 10 13 19 18 10 355 4 359 350 346
161 148 145 142 142 143 143 135 135 136 143 152 141 139 142 127 141 148 162 165 161 137 124 124 118 106 79 69 72 76 83 62 43 43 43 43 43 49 38 51 37 23 15 20 9 359 5 1 0 0 4 4 10 19 33 43 54 44 44 45 36 26 358 3 18 17 8 15 12 15 15 9 8 10 10 10 12 14 9 3 1 358 358 347 346
149 150 146 141 141 144 146 143 144 148 149 151 153 134 132 143 142 133 146 147 138 126 130 120 112 109 106 99 100 96 96 83 57 46 47 50 47 52 53 60 53 49 41 29 25 12 355 352 340 351 357 2 16 31 42 48 52 53 49 51 41 13 6 19 10 15 15 16 16 17 19 14 15 12 11 7 6 3 2 0 358 353 354 350 341
148 146 148 145 144 145 147 149 149 154 157 139 132 145 150 144 158 165 139 108 99 121 129 121 121 121 115 102 84 70 78 82 70 46 42 49 51 50 60 45 37 54 42 29 13 11 353 337 332 340 352 14 44 52 54 53 50 56 52 51 37 27 26 21 10 13 14 16 13 17 17 15 13 11 9 6 360 356 353 352 354 352 350 341 334
147 146 146 147 148 150 151 150 152 152 158 155 147 163 164 119 87 121 164 97 96 117 126 127 122 115 97 72 58 56 37 58 57 52 42 43 44 45 47 46 37 49 57 32 2 333 322 330 326 349 7 56 64 58 57 54 50 50 50 46 36 26 24 24 19 19 20 16 17 16 11 9 5 5 3 360 354 351 348 345 346 348 346 341 330
145 145 150 153 153 157 160 161 159 153 156 157 151 133 100 97 94 106 123 119 118 116 126 125 122 128 130 128 95 60 44 51 47 41 36 39 39 38 39 43 43 39 45 30 358 342 342 351 337 343 55 63 64 61 58 58 55 47 46 45 36 29 27 24 24 20 16 19 20 14 9 3 357 358 358 350 347 346 341 341 341 343 343 342 334
147 151 156 162 162 167 162 168 172 169 165 148 128 118 121 118 97 90 111 111 118 124 136 143 144 146 147 153 174 128 49 38 6 17 24 31 31 28 28 36 38 37 41 14 9 348 324 317 346 58 58 55 55 57 53 51 50 48 47 43 39 32 30 26 22 16 23 18 12 7 4 1 353 343 336 339 336 338 346 345 342 339 339 343 347
153 159 162 165 169 166 163 181 183 180 168 158 141 147 145 130 120 120 112 117 124 128 134 137 145 152 159 172 168 178 131 327 330 338 21 22 12 15 15 28 35 36 40 21 352 342 354 33 52 56 54 51 49 48 53 48 47 47 48 45 37 36 31 30 22 26 22 10 9 5 353 344 347 342 335 339 352 359 353 351 350 352 353 353 355
159 161 167 170 170 167 169 179 185 187 146 121 135 147 139 127 126 131 131 129 131 132 136 133 135 143 159 171 174 179 213 229 352 26 32 28 7 0 357 22 28 40 34 14 8 5 11 28 60 66 68 58 56 55 53 45 41 41 41 41 38 34 31 30 29 22 17 9 7 358 347 341 327 345 357 356 359 359 359 350 351 352 353 353 346
164 171 171 170 171 174 177 183 181 162 138 139 137 131 137 144 144 151 153 155 143 152 146 151 152 152 154 163 166 180 225 9 34 35 344 22 12 350 355 27 32 32 25 8 354 344 353 35 50 41 41 41 37 35 37 41 41 44 45 42 40 32 35 36 37 33 20 9 354 347 347 352 356 354 351 355 357 356 355 354 353 350 356 349 357
167 171 173 168 174 178 180 182 175 142 132 117 102 121 160 169 151 151 206 176 161 155 165 164 168 171 153 159 150 148 138 172 218 183 194 200 53 1 10 10 5 15 21 359 344 355 30 52 51 44 42 50 43 42 35 35 34 39 46 42 34 29 26 28 28 22 8 8 9 3 357 351 354 352 352 353 358 354 350 351 354 351 349 355 4
170 177 176 176 173 173 179 172 152 147 145 145 129 80 36 43 38 155 159 137 166 167 147 168 176 160 144 179 164 157 185 196 149 162 184 222 245 237 259 286 308 333 348 0 51 42 47 77 63 77 68 65 60 54 50 45 39 38 37 41 33 31 33 31 32 18 14 15 7 4 360 355 354 355 353 352 344 354 351 356 351 349 351 358 357
178 179 179 184 179 176 175 164 162 153 156 152 149 134 109 38 40 51 73 90 114 136 166 148 152 160 148 150 176 141 136 135 151 167 183 216 240 270 281 296 326 321 320 56 46 81 102 98 89 78 84 81 72 64 61 56 44 47 44 43 32 31 31 33 28 19 18 15 8 7 1 0 357 353 355 350 347 344 345 350 351 349 360 358 359
182 188 186 184 178 176 179 170 162 159 163 163 157 154 149 130 58 32 44 60 70 90 113 128 142 146 146 142 144 115 155 169 164 183 195 208 237 268 296 310 306 279 199 160 90 76 108 113 99 96 92 78 72 68 64 64 51 51 52 50 34 26 36 34 26 26 18 16 9 6 5 2 358 355 353 347 347 343 346 351 357 357 359 360 1
183 184 183 182 181 178 176 173 174 169 168 169 172 166 156 159 153 172 345 27 53 59 70 104 123 135 141 149 153 158 184 181 184 182 191 223 268 299 318 322 288 150 116 77 100 102 102 111 113 112 98 100 89 82 72 65 62 56 62 69 51 34 40 33 32 33 25 18 9 4 5 358 358 354 353 353 350 348 353 356 356 358 356 355 354
185 179 180 182 180 185 184 180 178 181 176 175 174 173 177 171 172 165 159 176 282 332 318 279 213 157 144 153 157 150 155 175 188 191 201 228 281 318 346 49 97 149 134 135 121 123 132 110 112 112 111 106 102 94 79 63 58 64 65 65 62 51 44 31 38 30 23 14 10 3 3 360 359 354 352 353 351 348 355 356 358 358 358 355 349
185 185 179 176 184 189 189 183 183 179 177 180 178 179 181 184 171 166 171 175 181 188 202 218 234 212 193 192 204 191 193 212 218 217 211 214 241 0 75 96 94 88 56 67 109 137 132 131 125 130 125 115 113 107 103 90 73 70 80 85 70 60 48 44 40 33 22 12 11 7 5 358 0 1 355 353 350 355 358 358 1 357 351 348 348
185 183 185 184 185 188 189 190 182 181 185 188 183 182 179 175 176 184 186 184 182 188 197 202 196 205 204 214 210 213 220 219 224 223 207 195 199 70 79 91 109 135 127 129 128 130 128 134 133 137 130 124 124 107 112 100 93 90 95 98 93 79 72 56 46 31 24 21 14 5 3 358 3 2 360 356 355 352 356 355 355 353 345 346 347
186 186 185 190 191 188 189 188 187 188 186 181 179 184 184 185 185 183 185 186 191 196 192 173 140 133 206 245 227 226 228 231 235 242 225 197 197 150 150 161 159 161 162 157 141 137 127 145 140 139 135 128 122 130 117 107 104 95 91 94 99 86 76 80 59 40 27 22 13 10 4 3 4 6 1 354 352 354 354 354 349 337 333 337 338
187 188 190 190 188 187 185 190 194 184 182 183 187 186 186 186 188 188 187 193 193 188 177 177 184 185 192 217 201 202 218 232 251 283 268 225 189 197 195 180 170 163 175 162 157 143 142 150 147 138 143 133 134 133 120 118 115 110 111 99 88 97 91 71 54 43 36 31 17 10 358 5 6 1 359 355 353 350 351 333 327 328 323 327 338
193 194 189 182 184 186 190 189 186 185 191 186 189 187 188 186 190 194 197 195 192 192 188 178 187 194 205 190 175 177 146 174 200 227 223 215 207 194 177 183 166 178 166 158 156 146 143 148 149 140 138 136 134 135 130 129 121 116 121 114 102 92 83 72 61 39 34 30 14 2 352 347 357 3 353 353 346 342 329 326 327 325 327 326 331
192 191 191 184 186 190 186 189 187 190 192 190 193 190 185 188 192 194 196 194 197 194 188 185 193 204 198 165 173 158 184 200 206 210 212 215 204 192 175 165 171 167 163 159 158 153 149 153 155 146 144 141 136 135 137 131 132 132 131 127 120 107 100 96 76 53 33 24 8 351 349 349 353 353 337 322 307 314 320 319 320 318 317 316 311
193 189 183 188 192 186 189 187 192 199 197 195 190 187 197 195 192 190 191 197 195 191 191 192 196 203 188 188 182 176 183 193 200 200 205 199 192 174 174 178 171 168 167 161 164 158 153 152 157 151 146 147 144 140 142 141 139 133 133 124 111 115 113 97 82 56 46 15 358 342 332 351 355 347 323 306 315 317 308 306 306 310 312 309 311
188 182 180 189 189 186 188 196 202 202 199 196 195 200 199 195 192 192 194 195 195 192 189 192 198 195 194 190 184 183 182 192 187 193 198 194 181 179 178 180 177 169 166 168 162 156 154 153 157 154 152 155 152 146 140 150 153 144 137 122 126 127 121 115 110 78 49 11 332 326 328 338 346 336 312 313 309 307 307 309 310 310 311 312 315
188 187 186 182 184 190 195 200 198 195 200 201 208 207 201 193 194 194 194 195 193 192 193 190 192 184 188 191 188 183 182 182 188 188 185 184 182 175 178 178 178 178 172 168 164 156 154 155 160 163 161 164 162 158 159 170 168 148 134 136 137 143 140 150 137 111 135 315 293 327 343 336 327 306 293 297 304 308 307 310 310 311 309 308 327
189 189 183 181 189 195 200 195 191 198 201 206 206 200 196 197 194 192 193 193 192 191 194 189 181 181 179 182 182 182 186 185 188 185 185 180 180 179 180 174 169 167 164 160 159 153 144 150 155 162 157 160 167 159 163 173 162 148 148 140 142 146 152 158 169 185 195 212 258 321 323 330 326 310 300 301 300 310 314 313 310 312 310 310 337
187 186 184 184 188 192 199 200 199 200 204 202 201 203 197 196 197 198 193 192 191 191 192 186 179 175 170 172 179 186 188 189 186 181 184 184 181 180 172 168 167 166 163 166 161 153 149 150 151 153 160 172 168 164 155 161 166 157 156 151 151 157 168 179 191 191 184 193 206 273 306 302 303 301 293 294 303 305 303 303 302 309 305 321 339
181 188 187 188 188 194 197 200 202 201 198 197 201 203 201 201 201 196 194 192 187 187 187 177 176 177 177 178 180 183 186 184 184 186 185 182 179 176 175 171 169 168 169 168 167 163 160 158 158 160 165 169 175 148 126 130 122 129 137 144 150 155 163 171 175 170 186 184 194 221 257 275 290 286 288 291 296 295 291 293 296 295 298 323 327
181 190 192 195 194 196 198 198 195 201 203 202 204 204 200 201 201 197 195 192 185 180 178 176 175 181 182 180 180 185 183 183 184 184 188 186 183 176 173 171 168 171 173 170 170 168 165 165 166 163 166 169 164 143 137 135 133 133 133 133 136 144 160 169 175 177 184 192 203 237 239 248 277 280 286 292 293 291 294 295 294 298 308 318 319
190 187 193 200 200 200 201 196 197 197 202 203 205 206 204 198 196 197 196 192 185 181 180 179 182 182 181 184 183 181 183 188 187 187 186 186 185 179 173 170 174 176 171 173 176 174 171 170 171 167 165 169 165 145 147 145 146 146 145 149 153 157 166 169 170 179 193 200 225 242 259 261 260 266 275 287 291 292 296 294 292 305 318 314 311
192 192 191 191 200 202 200 197 197 196 201 203 203 204 202 199 199 199 196 193 192 187 183 183 185 182 183 182 179 184 186 187 187 187 189 189 183 180 177 174 172 173 172 178 179 179 178 175 172 172 172 173 165 148 153 153 156 157 159 159 164 166 169 172 171 184 201 202 209 228 250 257 265 269 278 283 286 288 283 283 311 323 317 313 307
194 194 194 195 198 201 201 199 200 202 202 202 201 203 201 200 200 199 197 195 193 192 188 185 182 182 180 179 182 183 183 189 191 190 189 186 184 179 176 173 173 176 179 179 180 181 178 179 176 174 174 173 156 153 158 158 161 162 162 164 164 169 170 177 179 190 198 203 211 226 233 251 261 270 273 279 282 289 293 314 323 319 316 312 309
195 196 197 197 199 201 199 200 202 204 202 200 200 201 199 199 201 199 196 196 197 195 191 186 184 181 184 183 179 180 184 190 192 189 186 184 181 179 178 175 176 177 181 179 177 177 178 175 176 174 174 165 157 158 160 159 161 164 161 161 167 171 173 178 186 198 206 221 220 226 232 246 262 269 279 282 288 288 303 320 321 318 311 305 305